Regional Weather Roundup
Issued by NWS

Home | Current Version | Previous Version | Text Only | Print | Product List | Glossary On
Versions: 1 2 3 4 5 6 7 8 9 10 11 12 13 14 15 16 17 18 19 20 21 22 23 24 25 26 27 28 29 30 31 32 33 34 35 36 37 38 39 40 41 42 43 44 45 46 47 48 49 50
000
ASPQ40 PGUM 221212
RWRPQ
WEATHER ROUNDUP FOR THE MARIANAS AND MICRONESIA
NATIONAL WEATHER SERVICE TIYAN GU
1000 PM CHST MON SEP 22 2014

GUZ001>004-221300-
MARIANA ISLANDS-

CITY           SKY/WX    TMP DP  RH WIND       PRES   REMARKS
GUAM AIRPORT   PTCLDY    81  79  94 N5        29.79S
ANDERSEN AFB   PTCLDY    79  77  94 W6        29.79S
ROTA AIRPORT   NOT AVBL
TINIAN AP      NOT AVBL
SAIPAN AP      LGT RAIN  79  77  94 NW6       29.77S

$$

PMZ161-221300-
REPUBLIC OF PALAU-

CITY           SKY/WX    TMP DP  RH WIND       PRES   REMARKS
KOROR AP       MOCLDY    79  77  94 CALM      29.87R
KOROR WSO      PTCLDY    81  79  94 CALM      29.84S

$$

PMZ171>174-221300-
FEDERATED STATES OF MICRONESIA-

CITY           SKY/WX    TMP DP  RH WIND       PRES   REMARKS
YAP AIRPORT    MOCLDY    82  77  83 VRB5      29.84R HX  91
CHUUK AP       CLOUDY    82  79  89 VRB5      29.82S HX  93
POHNPEI AP     NOT AVBL
POHNPEI WSO    PTCLDY    77  75  94 SE3       29.87S
KOSRAE AP      NOT AVBL

$$

PMZ181-221300-
REPUBLIC OF THE MARSHALL ISLANDS-

CITY           SKY/WX    TMP DP  RH WIND       PRES   REMARKS
KWAJALEIN AP   CLOUDY    84  75  74 N7        29.81F HX  92
MAJURO AP      LGT RAIN  77  75  94 N12       29.81
MAJURO WSO     CLOUDY    77  75  94 CALM      29.81F

$$



USA.gov is the U.S. government's official web portal to all federal, state and local government web resources and services.